Other Public Products
Issued by NWS Charleston, SC

Current Version | Previous Version | Text Only | Print | Product List | Glossary Off
Versions: 1 2 3 4 5 6 7 8 9 10 11 12 13 14 15 16 17 18 19 20 21 22 23 24 25 26 27 28 29 30 31 32 33 34 35 36 37 38 39 40 41 42 43 44 45 46 47 48 49 50

669
FPUS82 KCHS 280127
OPUCHS

TEST...KCHS/KSAV Gateway Observations...TEST
National Weather Service Charleston SC
900 PM EDT THU APR 27 2017

NOTE: "fair" indicates few or no clouds below 12,000 feet with no
significant weather and/or obstructions to visibility.

SCZ050-WAZ558-NCZ071-TXZ119-213-PAZ071-DCZ001-FLZ074-172-MI076-
NYZ176-178-MAZ016-IL014-TNZ027-NJZ106-GAZ044-MD014-280200-

...Gateway Observations for Charleston International...

CITY           SKY/WX    TMP DP  RH WIND       PRES   REMARKS
Chas Airport   CLOUDY    75  64  68 S12       29.89R
Seattle        PTSUNNY   53  39  59 W8        30.08S
Charlotte      CLOUDY    73  65  75 S3        29.87R
Dallas DFW     PTCLDY    73  51  46 SE15      29.57F
Dallas Love    MOCLDY    72  52  49 SE20      29.59F
Philladelphia  MOCLDY    70  61  73 SE8       29.82R
Wash National  CLOUDY    77  59  53 S12       29.79R
Baltimore      MOCLDY    71  60  68 S5        29.79R
Miami          PTCLDY    81  74  79 SE8       29.95R
Detroit        CLOUDY    54  40  59 W20G31    29.74R
Newark         DRZL/FOG  56  55  97 SE8       29.88S VSB 1
Laguardia      FOG       60  57  89 SE10      29.89R VSB 1
J F K          FOG       56  56 100 SE9G18    29.90S VSB 3/4
Boston Logan   CLOUDY    52  51  97 E7        29.94S
Ft. Lauderdale CLEAR     80  73  79 SE10      29.95R
Chicago O`Hare CLOUDY    45  34  65 W15       29.77R
Chicago Midway CLOUDY    47  38  71 W16       29.78R
Houston Bush   CLOUDY    73  52  47 SE16      29.67F
Houston Hobby  PTCLDY    71  61  70 E8        29.69S
Nashville      PTCLDY    63  50  62 W5        29.86R
Atlanta        PTCLDY    74  70  87 S7        29.85R

$$

GAZ044-118-TXZ119-213-NCZ071-DCZ001-MDZ014-506-PAZ021-071-NJZ106-
NYZ176-178-MAZ106-OHZ011-021-055-MIZ076-KYZ091-ILZ014-INZ047-
MNZ060-ONZ431-280200-

...Gateway Observations for Savannah International...

CITY           SKY/WX    TMP DP  RH WIND       PRES   REMARKS
Savannah Arpt  PTCLDY    77  63  61 S15       29.88R
Atlanta        PTCLDY    74  70  87 S7        29.85R
Charlotte      CLOUDY    73  65  75 S3        29.87R
Dallas DFW     PTCLDY    73  51  46 SE15      29.57F
Houston Bush   CLOUDY    73  52  47 SE16      29.67F
Wash National  CLOUDY    77  59  53 S12       29.79R
Wash Dulles    CLOUDY    75  57  53 S9        29.78R
Baltimore      MOCLDY    71  60  68 S5        29.79R
Philadelphia   MOCLDY    70  61  73 SE8       29.82R
Newark         DRZL/FOG  56  55  97 SE8       29.88S VSB 1
Laguardia      FOG       60  57  89 SE10      29.89R VSB 1
J F K          FOG       56  56 100 SE9G18    29.90S VSB 3/4
Boston         CLOUDY    52  51  97 E7        29.94S
Pittsburg      LGT RAIN  59  55  87 S3        29.75R
Akron          PTCLDY    64  48  56 W15G21    29.75R
Cleveland      PTCLDY    61  44  53 W13       29.76R
Cincinnati     MOCLDY    56  46  69 W5        29.83R
Columbus       CLEAR     57  47  67 W9        29.81R
Detroit        CLOUDY    54  40  59 W20G31    29.74R
Chicago O`Hare CLOUDY    45  34  65 W15       29.77R
Minneapolis    CLOUDY    34  23  64 NW9       29.71R WCI  27
Indianapolis   MOCLDY    53  43  68 W10       29.83R
Toronto Canada MOCLDY    63  61  94 SE7       29.62R

$$




USA.gov is the U.S. government's official web portal to all federal, state and local government web resources and services.